Regional Weather Roundup
Issued by NWS

Home | Current Version | Previous Version | Graphics & Text | Print | Product List | Glossary On
Versions: 1 2 3 4 5 6 7 8 9 10 11 12 13 14 15 16 17 18 19 20 21 22 23 24 25 26 27 28 29 30 31 32 33 34 35 36 37 38 39 40 41 42 43 44 45 46 47 48 49 50
000
ASUS43 KLSX 020559
RWRMO

WEATHER SUMMARY FOR MISSOURI
NATIONAL WEATHER SERVICE SPRINGFIELD MO
100 AM CDT SUN AUG 02 2015

NOTE: "FAIR" INDICATES FEW OR NO CLOUDS BELOW 12,000 FEET WITH NO
       SIGNIFICANT WEATHER AND/OR OBSTRUCTIONS TO VISIBILITY.
       CURRENT SKY AND/OR WEATHER CONDITIONS ARE NOT AVAILABLE FOR
       CHILLICOTHE AND FARMINGTON.

MOZ001>031-035>038-043-044-053-054-020700-
...NORTHERN AND WESTERN MISSOURI...

CITY           SKY/WX    TMP DP  RH WIND       PRES   REMARKS
KANSAS CTY INT PTCLDY    69  64  84 S7        29.97F
6HR MIN TEMP:  69; 6HR MAX TEMP:  88;

KANSAS C DTWN  PTCLDY    74  63  68 S7        29.96F
6HR MIN TEMP:  74; 6HR MAX TEMP:  87;

LEE`S SUMMIT   PTCLDY    73  63  70 S5        29.98F
6HR MIN TEMP:  72; 6HR MAX TEMP:  79;

ST JOSEPH      PTCLDY    72  63  73 S7        29.95F
6HR MIN TEMP:  72; 6HR MAX TEMP:  88;

CHILLICOTHE      N/A     69  65  86 CALM      29.96S
6HR MIN TEMP:  68; 6HR MAX TEMP:  73; 6HR PCP:  0.29;

KIRKSVILLE     MOCLDY    66  63  90 S3        29.95F
6HR MIN TEMP:  64; 6HR MAX TEMP:  83; 6HR PCP: TRACE;


$$
MOZ066>068-077>081-088>096-101>105-020700-
...SOUTHWEST MISSOURI...

CITY           SKY/WX    TMP DP  RH WIND       PRES   REMARKS
SPRINGFIELD    CLEAR     73  66  78 S5        30.01F
6HR MIN TEMP:  71; 6HR MAX TEMP:  90;

JOPLIN         CLEAR     74  66  76 S3        30.00F
6HR MIN TEMP:  73; 6HR MAX TEMP:  91;


$$
MOZ032>034-039>042-045>050-055>058-069>072-020700-
...CENTRAL MISSOURI...

CITY           SKY/WX    TMP DP  RH WIND       PRES   REMARKS
COLUMBIA       CLOUDY    68  67  96 S8        29.97F
6HR MIN TEMP:  67; 6HR MAX TEMP:  74; 6HR PCP:  0.02;

JEFFERSON CITY CLOUDY    69  66  90 SE3       29.97F
6HR MIN TEMP:  69; 6HR MAX TEMP:  80; 6HR PCP:  0.01;

ROLLA          MOCLDY    71  69  93 S5        30.00S
6HR MIN TEMP:  70; 6HR MAX TEMP:  82;

SEDALIA        MOCLDY    68  64  87 S6        29.99F
6HR MIN TEMP:  68; 6HR MAX TEMP:  75; 6HR PCP:  0.01;

WHITEMAN AFB   MOCLDY    68  65  90 SE6       29.97F
WARRENSBURG    MOCLDY    66  64  94 CALM      29.99S
OSAGE BEACH    PTCLDY    70  64  83 S3        30.00S

$$
MOZ051-052-059>065-020700-
...EAST CENTRAL MISSOURI...

CITY           SKY/WX    TMP DP  RH WIND       PRES   REMARKS
ST LOUIS INTL  PTCLDY    81  70  69 S5        29.98S
6HR MIN TEMP:  81; 6HR MAX TEMP:  88;

SPIRIT OF STL  PTCLDY    73  70  90 CALM      29.97S
6HR MIN TEMP:  72; 6HR MAX TEMP:  83;

ST CHARLES     PTCLDY    73  70  90 E6        29.96S
6HR MIN TEMP:  73; 6HR MAX TEMP:  85;


$$
MOZ072>076-082>087-097>100-106>115-020700-
...SOUTH CENTRAL AND SOUTHEAST MISSOURI...

CITY           SKY/WX    TMP DP  RH WIND       PRES   REMARKS
CAPE GIRARDEAU CLEAR     76  71  85 E3        29.98S
6HR MIN TEMP:  75; 6HR MAX TEMP:  86;

FARMINGTON     PTCLDY    72  70  94 CALM      30.05S
6HR MIN TEMP:  72; 6HR MAX TEMP:  82;

POPLAR BLUFF   PTCLDY    76  73  91 CALM      29.97S
6HR MIN TEMP:  76; 6HR MAX TEMP:  89;

WEST PLAINS    CLEAR     68  65  90 CALM      30.04S
6HR MIN TEMP:  68; 6HR MAX TEMP:  86;


$$



USA.gov is the U.S. government's official web portal to all federal, state and local government web resources and services.